Peoria, IL

8:00 PM CST on November 21, 2019 (GMT -0600)
Greater Peoria Regional

Weather History for KPIA - September, 2019

Change the Weather History Date:

Wednesday, September 4, 2019

  Actual Average Record
Temperature  
Mean Temperature 68 °F 71 °F  
Max Temperature 75 °F 81 °F 98 °F (2015)
Min Temperature 59 °F 60 °F 40 °F (1974)
Degree Days  
Heating Degree Days 0 1  
Month to date heating degree days 0 3  
Since 1 July heating degree days 0 9  
Cooling Degree Days 2 6  
Month to date cooling degree days 24 27  
Year to date cooling degree days 1006 934  
Growing Degree Days 18 (Base 50)    
Moisture  
Dew Point 57 °F    
Average Humidity 69    
Maximum Humidity 90    
Minimum Humidity 53    
Precipitation  
Precipitation 0.00 in 0.10 in 2.78 in (2008)
Month to date precipitation 0.62 0.44  
Year to date precipitation 34.14 25.39  
Snow  
Snow 0.00 in 0.00 in 0.00 in ()
Month to date snowfall 0.0 0.0  
Since 1 July snowfall 0.0 0.0  
Since 1 September snowfall 0.0 0.0  
Snow Depth 0.00 in    
Sea Level Pressure  
Sea Level Pressure 30.10 in    
Wind  
Wind Speed 4 mph ()    
Max Wind Speed 10 mph    
Max Gust Speed 15 mph    
Visibility 10.0 miles    
Events      
T = Trace of Precipitation, MM = Missing Value Source: Averaged Metar Reports

Daily Weather History Graph

Daily Weather History Graph

Search for Another Location

Airport or City:

Astronomy

Sep. 04, 2019 Rise Set
Actual Time 6:28 AM CDT 7:26 PM CDT
Civil Twilight 6:00 AM CDT 7:54 PM CDT
Nautical Twilight 5:27 AM CDT 8:27 PM CDT
Astronomical Twilight 4:52 AM CDT 9:01 PM CDT
Moon 12:31 PM CDT (9/4) 10:58 PM CDT (9/4)
Length of Visible Light 13h 53m
Length of Day
12h 57m
Waxing Crescent, 35% of the Moon is Illuminated
Sep 4
Waxing Crescent
Sep 5
First Quarter
Sep 13
Full
Sep 21
Last Quarter
Sep 28
New

Hourly Weather History & Observations

Time (CDT) Temp. Dew Point Humidity Pressure Visibility Wind Dir Wind Speed Gust Speed Precip Events Conditions
12:54 AM 71.1 °F 62.1 °F 73% 29.97 in 10.0 mi NNW 3.5 mph - N/A   Clear
1:54 AM 70.0 °F 60.1 °F 71% 29.99 in 10.0 mi North 6.9 mph - N/A   Clear
2:54 AM 66.9 °F 57.9 °F 73% 30.00 in 10.0 mi North 4.6 mph - N/A   Clear
3:54 AM 64.0 °F 57.9 °F 80% 30.02 in 10.0 mi NNW 3.5 mph - N/A   Clear
4:54 AM 62.1 °F 55.9 °F 80% 30.04 in 10.0 mi Calm Calm - N/A   Clear
5:54 AM 61.0 °F 55.0 °F 81% 30.06 in 10.0 mi NW 3.5 mph - N/A   Clear
6:54 AM 60.1 °F 55.0 °F 83% 30.09 in 10.0 mi Calm Calm - N/A   Clear
7:54 AM 63.0 °F 55.0 °F 75% 30.10 in 10.0 mi North 6.9 mph - N/A   Clear
8:54 AM 64.9 °F 55.9 °F 73% 30.12 in 10.0 mi Variable 5.8 mph - N/A   Clear
9:54 AM 69.1 °F 55.9 °F 63% 30.12 in 10.0 mi Variable 5.8 mph - N/A   Clear
10:54 AM 70.0 °F 55.9 °F 61% 30.13 in 10.0 mi NNE 5.8 mph - N/A   Clear
11:54 AM 72.0 °F 57.0 °F 59% 30.13 in 10.0 mi NNW 8.1 mph - N/A   Scattered Clouds
12:54 PM 73.9 °F 57.9 °F 57% 30.13 in 10.0 mi NNW 6.9 mph - N/A   Scattered Clouds
1:54 PM 75.0 °F 57.9 °F 55% 30.12 in 10.0 mi NW 8.1 mph - N/A   Scattered Clouds
2:54 PM 72.0 °F 55.9 °F 57% 30.12 in 10.0 mi North 4.6 mph - N/A   Scattered Clouds
3:54 PM 75.9 °F 57.9 °F 54% 30.12 in 10.0 mi Variable 6.9 mph - N/A   Scattered Clouds
4:54 PM 75.9 °F 57.9 °F 54% 30.12 in 10.0 mi North 6.9 mph - N/A   Clear
5:54 PM 73.9 °F 55.9 °F 53% 30.12 in 10.0 mi North 6.9 mph - N/A   Overcast
6:54 PM 71.1 °F 55.9 °F 59% 30.12 in 10.0 mi North 3.5 mph - N/A   Partly Cloudy
7:54 PM 66.9 °F 57.0 °F 70% 30.14 in 10.0 mi NNE 3.5 mph - N/A   Clear
8:54 PM 64.9 °F 55.9 °F 73% 30.14 in 10.0 mi NE 3.5 mph - N/A   Clear
9:54 PM 63.0 °F 55.9 °F 78% 30.14 in 10.0 mi Calm Calm - N/A   Clear
10:54 PM 60.1 °F 55.9 °F 86% 30.15 in 10.0 mi Calm Calm - N/A   Clear
11:54 PM 59.0 °F 55.9 °F 90% 30.15 in 10.0 mi Calm Calm - N/A   Partly Cloudy